FW0979 Weather Reports


Display with metric or nautical units.
time (UTC)temp
F
wind
direction
speed
MPH
gust
MPH
rain 1hr
in
rain 24hr
in
rain mn
in
humidity
%
barometer
mb
20260503234550 75 236 7.0 13.0 0.00 0.00 0.00 35 1011.5
20260503233049 75 224 7.0 15.0 0.00 0.00 0.00 35 1011.8
20260503231547 75 212 7.0 18.0 0.00 0.00 0.00 34 1011.8
20260503230059 74 220 6.0 15.0 0.00 0.00 0.00 36 1011.9
20260503224542 74 229 8.0 17.0 0.00 0.00 0.00 36 1012.2
20260503223040 75 243 8.0 16.0 0.00 0.00 0.00 35 1012.4
20260503221538 75 238 9.0 16.0 0.00 0.00 0.00 35 1012.7
20260503220036 75 252 8.0 20.0 0.00 0.00 0.00 35 1012.8
20260503214541 74 200 8.0 15.0 0.00 0.00 0.00 36 1013.1
20260503213032 74 229 9.0 17.0 0.00 0.00 0.00 35 1013.4
20260503211529 75 220 7.0 19.0 0.00 0.00 0.00 35 1013.6
20260503210025 74 241 10.0 20.0 0.00 0.00 0.00 35 1014.2
20260503204523 74 200 5.0 13.0 0.00 0.00 0.00 36 1014.4
20260503203020 73 233 7.0 16.0 0.00 0.00 0.00 36 1014.6
20260503201518 73 179 8.0 18.0 0.00 0.00 0.00 37 1015.0
20260503200016 73 199 8.0 18.0 0.00 0.00 0.00 37 1015.4
20260503194513 72 212 7.0 16.0 0.00 0.00 0.00 38 1015.4
20260503193011 72 179 7.0 16.0 0.00 0.00 0.00 38 1015.8
20260503191515 72 263 8.0 15.0 0.00 0.00 0.00 37 1016.2
20260503190008 73 179 7.0 17.0 0.00 0.00 0.00 38 1016.5
20260503184504 72 213 9.0 16.0 0.00 0.00 0.00 38 1016.8
20260503183102 72 236 8.0 15.0 0.00 0.00 0.00 39 1017.0
20260503181614 72 221 7.0 17.0 0.00 0.00 0.00 40 1017.3
20260503180115 71 210 8.0 15.0 0.00 0.00 0.00 40 1017.6
20260503174557 70 245 8.0 17.0 0.00 0.00 0.00 40 1018.1
20260503173059 70 224 8.0 18.0 0.00 0.00 0.00 42 1018.1
20260503171545 69 178 8.0 17.0 0.00 0.00 0.00 43 1018.5
20260503081534 53 210 2.0 6.0 0.00 0.00 0.00 71 1019.8
20260503071511 54 360 2.0 5.0 0.00 0.00 0.00 70 1020.5
20260503054548 55 232 1.0 4.0 0.00 0.00 0.00 65 1020.9
20260503053047 56 232 1.0 3.0 0.00 0.00 0.00 64 1020.9
20260503051547 56 232 1.0 5.0 0.00 0.00 0.00 63 1020.9
20260503050046 56 232 2.0 5.0 0.00 0.00 0.00 63 1021.0
20260503044548 56 360 2.0 4.0 0.00 0.00 0.00 62 1021.0
20260503043044 57 360 0.0 3.0 0.00 0.00 0.00 62 1021.0
20260503041544 57 360 1.0 3.0 0.00 0.00 0.00 61 1021.0
20260503040046 57 360 2.0 3.0 0.00 0.00 0.00 61 1021.0
20260503034543 58 360 1.0 3.0 0.00 0.00 0.00 59 1020.9
20260503033042 59 360 0.0 2.0 0.00 0.00 0.00 57 1020.7
20260503031543 59 360 1.0 3.0 0.00 0.00 0.00 55 1020.6
20260503030059 60 360 1.0 3.0 0.00 0.00 0.00 53 1020.5
20260503024542 60 360 1.0 3.0 0.00 0.00 0.00 51 1020.4
20260503023041 61 360 1.0 3.0 0.00 0.00 0.00 49 1020.2
20260503021541 61 360 0.0 2.0 0.00 0.00 0.00 49 1020.1
20260503020040 62 360 0.0 2.0 0.00 0.00 0.00 46 1020.0
20260503014556 63 360 1.0 3.0 0.00 0.00 0.00 46 1020.0
20260503013038 64 360 1.0 2.0 0.00 0.00 0.00 43 1019.9
20260503011547 65 360 1.0 3.0 0.00 0.00 0.00 41 1019.8
20260503010037 65 360 2.0 5.0 0.00 0.00 0.00 40 1019.8
20260503004539 65 360 2.0 6.0 0.00 0.00 0.00 41 1020.1
20260503003045 65 360 2.0 6.0 0.00 0.00 0.00 40 1020.1
20260503001534 65 236 2.0 6.0 0.00 0.00 0.00 40 1020.0
20260503000035 66 236 3.0 7.0 0.00 0.00 0.00 39 1020.1